EB5ETD Weather Reports


Display with metric or nautical units.
time (UTC)temp
F
wind
direction
speed
MPH
gust
MPH
rain 1hr
in
rain 24hr
in
rain mn
in
humidity
%
barometer
mb
20260904054005 69 207 0.0 0.0 0.00 0.00 0.00 72 1027.7
20260904053505 69 207 0.0 0.0 0.00 0.00 0.00 72 1027.8
20260904053003 69 207 0.0 1.0 0.00 0.00 0.00 72 1027.5
20260904052504 69 207 0.0 1.0 0.00 0.00 0.00 72 1027.7
20260904052004 69 207 0.0 0.0 0.00 0.00 0.00 72 1027.6
20260904051504 69 207 0.0 0.0 0.00 0.00 0.00 72 1027.5
20260904051003 69 207 0.0 0.0 0.00 0.00 0.00 71 1027.4
20260904050504 69 207 0.0 1.0 0.00 0.00 0.00 72 1027.4
20260904050004 69 207 1.0 1.0 0.00 0.00 0.00 72 1027.4
20260904045504 70 207 0.0 1.0 0.00 0.00 0.00 73 1027.4
20260904045003 70 207 0.0 1.0 0.00 0.00 0.00 72 1027.5
20260904044503 70 207 0.0 1.0 0.00 0.00 0.00 73 1027.3
20260904044004 70 208 1.0 2.0 0.00 0.00 0.00 72 1027.3
20260904043504 70 189 1.0 1.0 0.00 0.00 0.00 73 1027.3
20260904042004 70 189 0.0 0.0 0.00 0.00 0.00 74 1027.3
20260904041004 70 189 0.0 0.0 0.00 0.00 0.00 74 1027.2
20260904040504 70 189 0.0 0.0 0.00 0.00 0.00 75 1027.3
20260904040004 70 189 1.0 2.0 0.00 0.00 0.00 75 1027.2
20260904035003 70 189 0.0 0.0 0.00 0.00 0.00 76 1027.3
20260904034504 70 189 0.0 0.0 0.00 0.00 0.00 76 1027.2
20260904034004 70 189 0.0 0.0 0.00 0.00 0.00 76 1027.3
20260904033504 71 189 0.0 0.0 0.00 0.00 0.00 75 1027.5
20260904033004 70 189 0.0 0.0 0.00 0.00 0.00 75 1027.5
20260904032504 71 188 0.0 1.0 0.00 0.00 0.00 75 1027.5
20260904032003 71 189 0.0 1.0 0.00 0.00 0.00 74 1027.6
20260904031504 71 189 0.0 0.0 0.00 0.00 0.00 74 1027.4
20260904031004 71 189 0.0 0.0 0.00 0.00 0.00 74 1027.6
20260904030504 71 189 0.0 0.0 0.00 0.00 0.00 75 1027.3
20260904025503 71 190 0.0 1.0 0.00 0.00 0.00 76 1027.3
20260904025003 71 190 0.0 1.0 0.00 0.00 0.00 75 1027.3
20260904024504 71 191 1.0 1.0 0.00 0.00 0.00 75 1027.2
20260904024004 71 191 1.0 1.0 0.00 0.00 0.00 76 1027.2
20260904023504 71 190 0.0 1.0 0.00 0.00 0.00 75 1027.4
20260904023004 71 190 1.0 1.0 0.00 0.00 0.00 75 1027.5
20260904022504 71 189 0.0 0.0 0.00 0.00 0.00 76 1027.6
20260904022004 71 189 0.0 1.0 0.00 0.00 0.00 75 1027.7
20260904021504 71 183 1.0 2.0 0.00 0.00 0.00 75 1027.6
20260904021004 71 206 1.0 2.0 0.00 0.00 0.00 76 1027.8
20260904020504 71 190 1.0 1.0 0.00 0.00 0.00 76 1027.7
20260904020004 71 190 0.0 0.0 0.00 0.00 0.00 77 1027.7
20260904015503 71 190 0.0 0.0 0.00 0.00 0.00 76 1027.7
20260904015004 72 190 0.0 1.0 0.00 0.00 0.00 76 1027.8
20260904014503 72 192 0.0 1.0 0.00 0.00 0.00 75 1027.8
20260904014003 72 192 0.0 1.0 0.00 0.00 0.00 74 1027.9
20260904013004 72 193 0.0 2.0 0.00 0.00 0.00 74 1028.0
20260904012504 72 184 1.0 2.0 0.00 0.00 0.00 74 1028.1
20260904012004 72 152 0.0 1.0 0.00 0.00 0.00 74 1028.1
20260904011504 73 237 0.0 1.0 0.00 0.00 0.00 74 1028.0
20260904011004 72 241 1.0 2.0 0.00 0.00 0.00 74 1028.2
20260904010504 73 238 1.0 3.0 0.00 0.00 0.00 74 1028.1
20260904010003 73 212 1.0 3.0 0.00 0.00 0.00 74 1028.1
20260904005504 73 37 1.0 2.0 0.00 0.00 0.00 73 1028.3
20260904005004 73 76 1.0 2.0 0.00 0.00 0.00 73 1028.4
20260904004505 73 200 0.0 1.0 0.00 0.00 0.00 74 1028.1
20260904004004 73 200 0.0 1.0 0.00 0.00 0.00 74 1028.5
20260904003504 73 202 0.0 0.0 0.00 0.00 0.00 73 1028.3
20260904003003 73 202 0.0 2.0 0.00 0.00 0.00 73 1028.4
20260904002503 73 211 1.0 2.0 0.00 0.00 0.00 72 1028.4
20260904002004 73 205 1.0 1.0 0.00 0.00 0.00 72 1028.7
20260904001504 73 205 0.0 2.0 0.00 0.00 0.00 72 1028.6
20260904001005 73 143 1.0 1.0 0.00 0.00 0.00 71 1028.5
20260904000503 73 206 0.0 1.0 0.00 0.00 0.00 72 1028.6
20260904000004 73 206 0.0 0.0 0.00 0.00 0.00 72 1028.8
20260903235004 74 206 0.0 0.0 0.00 0.00 0.00 72 1028.5
20260903234504 74 206 0.0 0.0 0.00 0.00 0.00 71 1028.6
20260903233504 74 206 1.0 1.0 0.00 0.00 0.00 72 1028.8
20260903233003 74 130 0.0 2.0 0.00 0.00 0.00 72 1028.9
20260903232504 74 72 0.0 2.0 0.00 0.00 0.00 71 1028.7
20260903232004 74 72 0.0 1.0 0.00 0.00 0.00 71 1028.7
20260903231003 74 72 1.0 2.0 0.00 0.00 0.00 72 1028.8
20260903230504 74 72 0.0 0.0 0.00 0.00 0.00 73 1028.8
20260903230004 75 72 0.0 1.0 0.00 0.00 0.00 72 1028.9
20260903225503 74 72 0.0 0.0 0.00 0.00 0.00 72 1028.8
20260903225004 75 72 0.0 1.0 0.00 0.00 0.00 72 1028.9
20260903224503 75 72 0.0 1.0 0.00 0.00 0.00 72 1029.2
20260903224003 76 72 0.0 1.0 0.00 0.00 0.00 71 1028.9
20260903223503 75 72 0.0 1.0 0.00 0.00 0.00 71 1029.0
20260903221504 76 72 1.0 1.0 0.00 0.00 0.00 73 1029.0
20260903221004 76 72 0.0 0.0 0.00 0.00 0.00 73 1028.9
20260903220504 76 72 0.0 1.0 0.00 0.00 0.00 73 1028.8
20260903220004 76 72 0.0 1.0 0.00 0.00 0.00 74 1028.8
20260903215504 77 72 0.0 1.0 0.00 0.00 0.00 77 1028.8
20260903214504 76 71 0.0 1.0 0.00 0.00 0.00 73 1029.0
20260903213504 76 72 0.0 1.0 0.00 0.00 0.00 76 1029.0
20260903213004 76 72 0.0 1.0 0.00 0.00 0.00 78 1029.1
20260903212005 77 72 1.0 2.0 0.00 0.00 0.00 77 1029.3
20260903211504 76 72 0.0 1.0 0.00 0.00 0.00 77 1029.1
20260903211004 78 72 1.0 2.0 0.00 0.00 0.00 82 1029.2
20260903210504 78 72 1.0 1.0 0.00 0.00 0.00 82 1029.4
20260903205504 78 72 1.0 3.0 0.00 0.00 0.00 81 1029.3
20260903205003 79 70 1.0 1.0 0.00 0.00 0.00 79 1029.1
20260903204504 78 70 1.0 2.0 0.00 0.00 0.00 74 1029.2
20260903204004 79 70 0.0 1.0 0.00 0.00 0.00 78 1029.1
20260903203504 79 70 1.0 2.0 0.00 0.00 0.00 80 1029.0
20260903203004 79 70 1.0 2.0 0.00 0.00 0.00 80 1029.0
20260903202504 79 70 1.0 3.0 0.00 0.00 0.00 79 1028.9
20260903202004 80 70 2.0 3.0 0.00 0.00 0.00 78 1028.9
20260903201504 80 69 1.0 2.0 0.00 0.00 0.00 77 1028.9
20260903201003 80 89 1.0 3.0 0.00 0.00 0.00 76 1028.9
20260903200503 81 71 1.0 3.0 0.00 0.00 0.00 75 1028.9
20260903200003 81 68 1.0 3.0 0.00 0.00 0.00 74 1028.6
20260903195503 81 64 1.0 2.0 0.00 0.00 0.00 74 1028.6
20260903195004 81 65 1.0 3.0 0.00 0.00 0.00 73 1028.5
20260903194504 82 64 2.0 3.0 0.00 0.00 0.00 73 1028.3
20260903194004 82 64 2.0 5.0 0.00 0.00 0.00 72 1028.4
20260903193504 82 58 3.0 5.0 0.00 0.00 0.00 71 1028.3
20260903193004 83 62 2.0 3.0 0.00 0.00 0.00 69 1028.4
20260903192504 83 64 2.0 2.0 0.00 0.00 0.00 69 1028.2
20260903191505 83 55 2.0 5.0 0.00 0.00 0.00 68 1028.0
20260903191004 84 59 2.0 3.0 0.00 0.00 0.00 68 1028.0
20260903190503 84 92 1.0 5.0 0.00 0.00 0.00 67 1027.9
20260903190004 86 59 1.0 3.0 0.00 0.00 0.00 63 1027.6
20260903185503 86 154 1.0 2.0 0.00 0.00 0.00 58 1027.6
20260903185004 85 153 1.0 2.0 0.00 0.00 0.00 56 1027.6
20260903184004 86 59 0.0 1.0 0.00 0.00 0.00 62 1027.3
20260903183504 86 59 0.0 2.0 0.00 0.00 0.00 62 1027.4
20260903183003 86 58 1.0 3.0 0.00 0.00 0.00 61 1027.3
20260903182504 86 65 2.0 3.0 0.00 0.00 0.00 62 1027.4
20260903182003 87 65 2.0 2.0 0.00 0.00 0.00 62 1027.4
20260903181503 87 50 2.0 3.0 0.00 0.00 0.00 60 1027.1
20260903181004 87 42 2.0 5.0 0.00 0.00 0.00 60 1027.2
20260903180503 88 60 1.0 3.0 0.00 0.00 0.00 61 1027.1
20260903175503 88 49 2.0 3.0 0.00 0.00 0.00 60 1027.3
20260903175005 89 83 1.0 3.0 0.00 0.00 0.00 59 1027.1
20260903174504 89 61 1.0 2.0 0.00 0.00 0.00 59 1027.1
20260903174004 89 64 1.0 3.0 0.00 0.00 0.00 59 1027.1
20260903173003 89 96 2.0 3.0 0.00 0.00 0.00 58 1027.2
20260903172503 90 76 1.0 3.0 0.00 0.00 0.00 57 1027.1
20260903172003 90 58 2.0 5.0 0.00 0.00 0.00 57 1026.9
20260903171004 91 71 1.0 3.0 0.00 0.00 0.00 55 1026.9
20260903170503 91 53 1.0 5.0 0.00 0.00 0.00 55 1026.7
20260903170004 91 52 2.0 6.0 0.00 0.00 0.00 54 1026.8
20260903165504 91 68 2.0 7.0 0.00 0.00 0.00 54 1026.7
20260903165004 91 71 3.0 6.0 0.00 0.00 0.00 54 1026.7
20260903164504 92 70 2.0 6.0 0.00 0.00 0.00 54 1026.6
20260903164005 92 58 4.0 7.0 0.00 0.00 0.00 53 1026.7
20260903163504 93 53 2.0 5.0 0.00 0.00 0.00 50 1026.6
20260903163003 93 32 2.0 5.0 0.00 0.00 0.00 46 1026.7
20260903162504 93 43 2.0 5.0 0.00 0.00 0.00 47 1026.8
20260903161503 93 76 2.0 7.0 0.00 0.00 0.00 48 1026.9
20260903161004 94 67 3.0 7.0 0.00 0.00 0.00 50 1026.8
20260903160504 94 84 0.0 5.0 0.00 0.00 0.00 49 1026.8
20260903155503 94 61 3.0 7.0 0.00 0.00 0.00 49 1026.7
20260903155004 94 68 2.0 5.0 0.00 0.00 0.00 49 1026.8
20260903154504 93 55 2.0 6.0 0.00 0.00 0.00 49 1026.9
20260903153003 93 66 5.0 8.0 0.00 0.00 0.00 51 1027.0
20260903152505 93 50 4.0 8.0 0.00 0.00 0.00 51 1027.1
20260903152003 93 52 3.0 8.0 0.00 0.00 0.00 50 1027.0
20260903151504 93 32 5.0 9.0 0.00 0.00 0.00 51 1027.1
20260903151004 93 56 6.0 9.0 0.00 0.00 0.00 50 1027.0
20260903150004 93 44 5.0 8.0 0.00 0.00 0.00 50 1027.1
20260903145504 93 65 5.0 7.0 0.00 0.00 0.00 48 1027.0
20260903144004 95 46 4.0 8.0 0.00 0.00 0.00 47 1027.0
20260903143504 95 60 2.0 7.0 0.00 0.00 0.00 47 1027.0
20260903143004 94 44 3.0 7.0 0.00 0.00 0.00 47 1027.1
20260903142503 93 50 3.0 8.0 0.00 0.00 0.00 48 1027.2
20260903141503 93 60 3.0 7.0 0.00 0.00 0.00 47 1027.3
20260903141004 94 62 3.0 7.0 0.00 0.00 0.00 47 1027.3
20260903140505 93 58 2.0 9.0 0.00 0.00 0.00 48 1027.2
20260903140004 93 57 6.0 10.0 0.00 0.00 0.00 48 1027.3
20260903135504 92 40 3.0 9.0 0.00 0.00 0.00 49 1027.5
20260903135004 92 42 2.0 9.0 0.00 0.00 0.00 49 1027.4
20260903134004 93 61 3.0 8.0 0.00 0.00 0.00 48 1027.6
20260903133505 93 58 5.0 9.0 0.00 0.00 0.00 48 1027.6
20260903133004 92 42 2.0 9.0 0.00 0.00 0.00 49 1027.7
20260903132504 93 53 4.0 8.0 0.00 0.00 0.00 48 1027.6
20260903132004 92 44 5.0 12.0 0.00 0.00 0.00 48 1027.8
20260903131504 93 61 4.0 9.0 0.00 0.00 0.00 47 1027.7
20260903131004 93 54 4.0 8.0 0.00 0.00 0.00 49 1027.7
20260903130503 92 45 5.0 10.0 0.00 0.00 0.00 48 1027.8
20260903125003 91 60 5.0 8.0 0.00 0.00 0.00 49 1027.8
20260903124503 91 64 5.0 12.0 0.00 0.00 0.00 47 1028.0
20260903124003 91 54 2.0 9.0 0.00 0.00 0.00 48 1028.0
20260903123504 91 43 6.0 9.0 0.00 0.00 0.00 49 1027.9
20260903123003 92 68 4.0 8.0 0.00 0.00 0.00 47 1027.8
20260903122503 92 54 3.0 10.0 0.00 0.00 0.00 47 1028.0
20260903121503 90 53 2.0 6.0 0.00 0.00 0.00 48 1028.2
20260903121004 91 51 4.0 8.0 0.00 0.00 0.00 48 1028.1
20260903120504 91 44 3.0 7.0 0.00 0.00 0.00 47 1028.3
20260903115504 89 40 5.0 8.0 0.00 0.00 0.00 49 1028.5
20260903115004 90 57 5.0 8.0 0.00 0.00 0.00 49 1028.4
20260903114504 90 144 2.0 7.0 0.00 0.00 0.00 48 1028.4
20260903114003 89 123 3.0 7.0 0.00 0.00 0.00 49 1028.5
20260903113503 89 50 2.0 8.0 0.00 0.00 0.00 50 1028.6
20260903113004 89 48 6.0 9.0 0.00 0.00 0.00 50 1028.6
20260903112004 90 57 5.0 8.0 0.00 0.00 0.00 46 1028.6
20260903111504 89 70 2.0 6.0 0.00 0.00 0.00 47 1028.8
20260903111004 89 54 3.0 6.0 0.00 0.00 0.00 47 1028.7
20260903110504 88 53 4.0 8.0 0.00 0.00 0.00 48 1028.8
20260903110004 88 56 4.0 6.0 0.00 0.00 0.00 48 1028.8
20260903105504 87 45 3.0 8.0 0.00 0.00 0.00 48 1029.0
20260903105004 87 50 4.0 7.0 0.00 0.00 0.00 48 1029.1
20260903104504 87 45 3.0 7.0 0.00 0.00 0.00 48 1029.2
20260903104005 87 39 3.0 10.0 0.00 0.00 0.00 48 1029.2
20260903103505 86 57 2.0 7.0 0.00 0.00 0.00 49 1029.4
20260903103004 87 33 3.0 7.0 0.00 0.00 0.00 48 1029.4
20260903102504 86 54 4.0 7.0 0.00 0.00 0.00 50 1029.6
20260903102004 86 67 3.0 6.0 0.00 0.00 0.00 50 1029.4
20260903101503 86 43 3.0 6.0 0.00 0.00 0.00 51 1029.5
20260903100503 84 58 3.0 6.0 0.00 0.00 0.00 53 1029.7
20260903095504 85 60 2.0 6.0 0.00 0.00 0.00 55 1029.6
20260903095004 84 39 3.0 7.0 0.00 0.00 0.00 58 1029.7
20260903094504 84 85 2.0 5.0 0.00 0.00 0.00 57 1029.6
20260903094004 82 42 4.0 6.0 0.00 0.00 0.00 58 1029.7
20260903093504 82 58 4.0 7.0 0.00 0.00 0.00 61 1029.6
20260903092504 82 60 3.0 6.0 0.00 0.00 0.00 63 1029.6
20260903092004 81 57 3.0 7.0 0.00 0.00 0.00 64 1029.6
20260903091518 81 56 3.0 6.0 0.00 0.00 0.00 64 1029.7
20260903091043 81 57 3.0 7.0 0.00 0.00 0.00 67 1029.7
20260903090539 81 49 3.0 7.0 0.00 0.00 0.00 67 1029.7
20260903090004 81 38 3.0 6.0 0.00 0.00 0.00 66 1029.5
20260903085504 81 41 3.0 6.0 0.00 0.00 0.00 65 1029.5
20260903085003 81 69 1.0 6.0 0.00 0.00 0.00 64 1029.2
20260903084504 81 100 1.0 3.0 0.00 0.00 0.00 61 1029.4
20260903084004 80 71 1.0 5.0 0.00 0.00 0.00 62 1029.3
20260903083504 81 62 2.0 3.0 0.00 0.00 0.00 62 1029.3
20260903083004 81 81 1.0 2.0 0.00 0.00 0.00 63 1029.4
20260903082503 80 89 1.0 2.0 0.00 0.00 0.00 64 1029.4
20260903081503 78 230 0.0 2.0 0.00 0.00 0.00 68 1029.4
20260903081004 77 230 1.0 2.0 0.00 0.00 0.00 71 1029.4
20260903080504 76 231 1.0 2.0 0.00 0.00 0.00 73 1029.7
20260903080004 76 231 1.0 2.0 0.00 0.00 0.00 73 1029.5
20260903075504 77 231 0.0 1.0 0.00 0.00 0.00 72 1029.4
20260903075004 76 231 1.0 1.0 0.00 0.00 0.00 75 1029.6
20260903073503 73 232 0.0 1.0 0.00 0.00 0.00 81 1029.8
20260903073004 72 232 0.0 2.0 0.00 0.00 0.00 82 1029.7
20260903072004 72 228 1.0 1.0 0.00 0.00 0.00 82 1029.8
20260903071004 70 229 1.0 2.0 0.00 0.00 0.00 86 1029.9
20260903070004 70 233 2.0 5.0 0.00 0.00 0.00 87 1029.9
20260903065504 71 178 2.0 3.0 0.00 0.00 0.00 85 1029.8
20260903063003 70 241 1.0 2.0 0.00 0.00 0.00 83 1029.6
20260903062504 71 241 1.0 2.0 0.00 0.00 0.00 83 1029.4
20260903061004 70 217 0.0 1.0 0.00 0.00 0.00 82 1029.4
20260903060504 69 217 1.0 1.0 0.00 0.00 0.00 82 1029.3
20260903060004 70 217 1.0 1.0 0.00 0.00 0.00 82 1029.3
20260903055504 70 216 1.0 1.0 0.00 0.00 0.00 82 1029.2
20260903055004 69 217 0.0 1.0 0.00 0.00 0.00 82 1029.1
20260903054504 69 217 0.0 1.0 0.00 0.00 0.00 82 1028.9